Home   Weather   Xi'an   Past weeks
Flag for China

Past Weather in Xi'an, Shaanxi, China — Yesterday and Last 2 Weeks

Now
52 °F

Sunny.


Feels Like: 48 °F
Forecast: 73 / 42 °F
Wind: 10 mph from Northeast

Location: Xian/Xianyang

Current Time: Mar 24, 2019 at 11:11:43 am

Latest Report: Mar 24, 2019 at 10:00 am


Visibility: 10 mi

Pressure: 30.12 "Hg

Humidity: 30%

Dew Point: 21 °F

Location of Xi'anLocation

Past Weather in Xi'an — Graph

°F

Xi'an Temperature Yesterday

Maximum temperature yesterday: 64 °F (at 3:00 pm)
Minimum temperature yesterday: 30 °F (at 6:00 am)
Average temperature yesterday: 48 °F

High & Low Weather Summary for the Past Weeks

 TemperatureHumidityPressure
High77 °F (Mar 18, 5:00 pm)93% (Mar 11, 2:00 am)30.42 "Hg (Mar 11, 2:00 am)
Low21 °F (Mar 11, 6:00 am)8% (Mar 14, 6:00 pm)29.50 "Hg (Mar 19, 5:00 pm)
Average52 °F38%30.08 "Hg
* Reported Mar 9 10:00 am — Mar 24 10:00 am, Xi'an. Weather by CustomWeather, © 2019

Note: Actual official high and low records may vary slightly from our data, if they occured in-between our weather recording intervals... More about our weather records

Advertising

Xi'an Weather History for the Previous 24 Hours

Scroll right to see more
 ConditionsComfort  
Time TempWeatherWind HumidityBarometerVisibility
10:00 am
Sun, Mar 24
52 °FSunny.10 mph30%30.12 "Hg10 mi
8:00 am41 °FSunny.1 mph39%30.09 "Hg10 mi
7:00 am37 °FClear.1 mph45%30.09 "Hg10 mi
6:00 am39 °FPassing clouds.3 mph36%30.09 "HgN/A
5:00 am36 °FClear.3 mph48%30.09 "Hg10 mi
4:00 am43 °FClear.3 mph34%30.09 "Hg10 mi
3:00 am39 °FClear.3 mph39%30.12 "Hg10 mi
2:00 am39 °FClear.1 mph39%30.12 "Hg10 mi
1:00 am46 °FPassing clouds.6 mph27%30.12 "HgN/A
12:00 am41 °FClear.3 mph36%30.15 "Hg10 mi
11:00 pm
Sat, Mar 23
41 °FClear.1 mph36%30.15 "Hg10 mi
10:00 pm46 °FClear.3 mph27%30.15 "Hg10 mi
9:00 pm50 °FClear.6 mph22%30.18 "Hg10 mi
8:00 pm54 °FClear.8 mph19%30.15 "Hg10 mi
7:00 pm57 °FSunny.10 mph15%30.15 "Hg10 mi
6:00 pm61 °FPassing clouds.10 mph12%30.15 "HgN/A
5:00 pm63 °FSunny.10 mph11%30.18 "Hg10 mi
4:00 pm64 °FPassing clouds.8 mph10%30.18 "HgN/A
3:00 pm64 °FPassing clouds.8 mph11%30.21 "HgN/A
2:00 pm61 °FPassing clouds.6 mph12%30.27 "HgN/A
1:00 pm61 °FPassing clouds.8 mph13%30.33 "HgN/A
12:00 pm59 °FPassing clouds.10 mph20%30.36 "HgN/A
11:00 am57 °FPassing clouds.6 mph29%30.39 "HgN/A
Weather by CustomWeather, © 2019

See weather overview